{"data":{"norad_id":65377,"intl_designator":"2025-190AC","name":"STARLINK-34879","alt_names":[],"object_type":"PAYLOAD","status":"ACTIVE","operator":null,"country":"US","launch_date":"2025-08-28","launch_site_code":"AFETR","launch_vehicle":null,"mission":null,"orbit_class":"UNKNOWN","rcs_meters":null,"size_class":null,"mass_kg":null,"dimensions":null,"purposes":["comms"],"wikipedia_slug":null,"has_3d_model":false,"image_url":null,"decayed_at":null,"tle_current":{"epoch":"2026-09-20T11:57:21.513024Z","epoch_age_seconds":115076,"freshness":"FRESH","line1":"1 65377U 25190AC  26263.49816566  .00043731  00000+0  12973-2 0  9990","line2":"2 65377  53.1610 341.7233 0001446  91.7064 268.4104 15.34414864 59606","mean_motion":15.34414864,"eccentricity":0.0001446,"inclination_deg":53.161,"raan_deg":341.7233,"arg_perigee_deg":91.7064,"mean_anomaly_deg":268.4104,"bstar":0.0012973,"rev_number":5960,"period_min":93.846848970566,"perigee_km":461.66988251279,"apogee_km":463.64824073381,"semimajor_km":6840.7960616233,"source":"CELESTRAK","updated_at":"2026-09-21T09:00:35.596272Z"}}}